Location: Bramevaque
(42.9773°N, 0.5757°E)
Time: 04:47:08
(UTC+00:00)

Cosmos 1812 Rocket - Pass Details

Date: 15 May 2026
Orbit: 599 x 624 km, 82.5° (Epoch: 6 June)

Event Time Altitude Azimuth Distance (km) Brightness Sun altitude
Exits shadow 23:39:58 49° 327° (NNW) 809 4.4 -27.9°
Drops below altitude 10° 23:43:29 10° 1° (N) 1,999 7.1 -27.9°
Sets 23:45:45 0° 5° (N) 2,912 8.3 -27.9°
